Torna al catalogo

STARLINK-4605

AttivoComunicazioniVLEO
NORAD 53616·PAYLOAD·🇺🇸 United States

Lanciato Aug 28, 2022 da Cape Canaveral Space Force Station

Loading…

Prossimi Passaggi (prossime 24 ore)

TLE

AggiornatoSource: CelesTrak SupGP

Epoca: Sep 14, 2026, 21:22 UTC

1 53616C 22104AE  26257.89076389  .00011611  00000+0  34317-3 0  2579
2 53616  53.1586  87.7263 0001183  77.5693  44.8242 15.34375551    18

Traccia STARLINK-4605 in tempo reale con AllMySat

Download on the App Store